Regional Weather Roundup
Issued by NWS

Home | Current Version | Previous Version | Graphics & Text | Print | Product List | Glossary On
Versions: 1 2 3 4 5 6 7 8 9 10 11 12 13 14 15 16 17 18 19 20 21 22 23 24 25 26 27 28 29 30 31 32 33 34 35 36 37 38 39 40 41 42 43 44 45 46 47 48 49 50
432
ASUS43 KLOT 051708
RWRIL

ILLINOIS REGIONAL WEATHER ROUNDUP
NATIONAL WEATHER SERVICE CHICAGO/ROMEOVILLE IL
1100 AM CST FRI FEB 05 2016

NOTE: "FAIR" INDICATES FEW OR NO CLOUDS BELOW 12,000 FEET WITH NO
SIGNIFICANT WEATHER AND/OR OBSTRUCTIONS TO VISIBILITY.

* THESE STATIONS ARE NOT UNDER NWS QUALITY CONTROL. THEY ALSO MAY NOT
  REPORT WEATHER SUCH AS PRECIPITATION OR FOG.

ILZ001-002-007-009-015-016-024-051800-
NORTHWEST ILLINOIS

CITY           SKY/WX    TMP DP  RH WIND       PRES   REMARKS
MOLINE         SUNNY     30  18  60 SW3       30.42R
STERLING*      CLOUDY    27  19  74 N3        30.38S
SAVANNA*       MOSUNNY   29  20  69 W6        30.41S WCI  23
$$

ILZ003-004-008-010-011-017-018-051800-
NORTH CENTRAL ILLINOIS

CITY           SKY/WX    TMP DP  RH WIND       PRES   REMARKS
ROCKFORD       CLOUDY    28  19  69 NW5       30.41R WCI  23
FREEPORT*      MOSUNNY   26  18  72 CALM      30.40S
ROCHELLE*      CLOUDY    26  20  79 NW7       30.40S WCI  18
DE KALB*       CLOUDY    27  22  80 N6        30.38S WCI  21
PERU*          CLOUDY    28  23  80 NW7       30.40F WCI  21
$$

ILZ005-006-012>014-019>023-051800-
NORTHEAST ILLINOIS

CITY           SKY/WX    TMP DP  RH WIND       PRES   REMARKS
CHICAGO-OHARE  PTSUNNY   29  22  75 NW8       30.36R WCI  21
CHICAGO-MIDWAY CLOUDY    32  22  66 N8        30.36R WCI  25
AURORA         CLOUDY    29  21  72 NW7       30.38R WCI  22
LANSING*       CLOUDY    33  26  77 N5        30.36S WCI  28
JOLIET*        CLOUDY    31  24  75 W7        30.39R WCI  24
WAUKEGAN       CLOUDY    27  20  75 NW9       30.36R WCI  18
DUPAGE AIRPORT   N/A    N/A N/A N/A MISG      30.36S
KANKAKEE*      CLOUDY    31  25  78 W8        30.38S WCI  23
WHEELING       PTSUNNY   28  21  75 NW9       30.38R WCI  19
MORRIS*        CLOUDY    29  23  78 NW3       30.38R
ROMEOVILLE*    CLOUDY    29  23  78 NW6       30.37S WCI  23
NORTHERLY ISL    N/A     31  25  78 MISG        N/A
$$

LMZ740>746-051800-
SOUTHERN LAKE MICHIGAN

STATION/POSITION SKY/WX   TEMP    WIND        PRES    VSBY  WAVE
                          AIR SEA DIR/SP/G                  HT/PER
                          (F)     (DEG/KT/KT) (MB)    (MI)  (FT/S)
HARRISON CRIB              30     350/ 15/ 17   N/A
BURNHAM HARBOR             30      10/ 11       N/A
CALUMET HARBOR                    340/  7/  9   N/A
BURNS HARBOR               30     280/  7/  9 1028.1R
MICHIGAN CITY              30     240/  9/ 10   N/A
$$

ILZ025>027-034>036-040-047-049-050-058-095>099-051800-
WEST-CENTRAL ILLINOIS

CITY           SKY/WX    TMP DP  RH WIND       PRES   REMARKS
QUINCY         CLOUDY    28  20  71 NW5       30.43R WCI  23
GALESBURG*     CLOUDY    28  21  74 CALM      30.41S
MACOMB*        MOSUNNY   28  21  73 CALM      30.45S
JACKSONVILLE*  CLOUDY    31  23  71 CALM      30.43S
PITTSFIELD*    CLOUDY    30  22  73 W6        30.45R WCI  24
$$

ILZ028>032-037-038-041>044-048-051>054-059>061-051800-
CENTRAL ILLINOIS

CITY           SKY/WX    TMP DP  RH WIND       PRES   REMARKS
PONTIAC        CLOUDY    30  24  76 NW5       30.40F WCI  26
BLOOMINGTON    CLOUDY    30  23  75 NW9       30.40S WCI  22
DECATUR        CLOUDY    30  21  69 NW7       30.42R WCI  23
PEORIA         PTSUNNY   30  20  66 CALM      30.42S
LACON*         CLOUDY    28  19  68 CALM      30.41S
LINCOLN*       PTSUNNY   30  23  74 CALM      30.43S
SPRINGFIELD    CLOUDY    32  21  64 CALM      30.43F
TAYLORVILLE    CLOUDY    30  23  74 N5        30.44R WCI  25
$$

ILZ033-039-045-046-055>057-062-063-051800-
EAST-CENTRAL ILLINOIS

CITY           SKY/WX    TMP DP  RH WIND       PRES   REMARKS
CHAMPAIGN      CLOUDY    29  23  78 NW8       30.40S WCI  21
RANTOUL*       CLOUDY    31  25  78 NW10      30.40R WCI  22
MATTOON        CLOUDY    30  22  72 NW9G33    30.41R WCI  22
$$

ILZ079-100>102-051800-
SOUTHWEST ILLINOIS

CITY           SKY/WX    TMP DP  RH WIND       PRES   REMARKS
BELLEVILLE     SUNNY     36  23  59 W3        30.44S
CAHOKIA*       SUNNY     35  21  56 W3        30.45S
SPARTA*        SUNNY     34  25  70 CALM      30.46S
$$

ILZ064>066-069>071-074>076-080>082-084>086-088>090-092>094-051800-
SOUTH-CENTRAL ILLINOIS

CITY           SKY/WX    TMP DP  RH WIND       PRES   REMARKS
CARBONDALE     SUNNY     39  23  52 NW6       30.44F WCI  35
CAIRO*         CLOUDY    38  27  64 SW3       30.45F
EFFINGHAM*     SUNNY     33  27  78 W6        30.44S WCI  27
MARION           N/A     39  25  56 NW5       30.44F
MT. VERNON     SUNNY     37  25  60 W7        30.44S WCI  32
CENTRALIA*     SUNNY     35  27  74 NW6       30.43S WCI  30
SALEM*         CLOUDY    35  26  68 NW5       30.43S WCI  31
METROPOLIS*    SUNNY     42  27  55 W3        30.45F
$$

ILZ067-068-072-073-078-083-087-091-051800-
SOUTHEAST ILLINOIS

CITY           SKY/WX    TMP DP  RH WIND       PRES   REMARKS
LAWRENCEVILLE  SUNNY     37  23  56 VRB5      30.42F WCI  33
FLORA*         SUNNY     36  28  70 NW5       30.43S WCI  32
FAIRFIELD*     SUNNY     37  26  62 CALM      30.42S
HARRISBURG*    SUNNY     40  26  56 W3        30.44S
ROBINSON*      SUNNY     34  24  65 NW7       30.43S WCI  28
CARMI*         SUNNY     38  25  58 SW3       30.43S
$$

ABBREVIATIONS USED IN REMARKS
   TC - TEMPERATURE IN CELSIUS
  WCI - WIND CHILL INDEX
   HX - HEAT INDEX
  VSB - VISIBILITY
$$





USA.gov is the U.S. government's official web portal to all federal, state and local government web resources and services.